Waarnemingen

Advertentie
Mijn weer
Ronneby, Zweden (2664): temperatuur & dauwpunt: 05.12.2017 03:00:00 - 11.12.2017 03:00:00 (CET)Ronneby, Zweden (2664): windsnelheid & windstoten: 05.12.2017 03:00:00 - 11.12.2017 03:00:00 (CET)Ronneby, Zweden (2664): windrichting: 05.12.2017 03:00:00 - 11.12.2017 03:00:00 (CET)Ronneby, Zweden (2664): luchtdruk: 05.12.2017 03:00:00 - 11.12.2017 03:00:00 (CET)Ronneby, Zweden (2664): zicht: 05.12.2017 03:00:00 - 11.12.2017 03:00:00 (CET)Ronneby, Zweden (2664): neerslag: 05.12.2017 03:00:00 - 11.12.2017 03:00:00 (CET)
Datum & Tijd tt [°C] td [°C] ff [km/u] ff [kn] fx [km/u] fx [kn] dd ppp [hPa] vv [km] rr [mm]
11.12.2017 03:00:00 -0,5 -2,1 15 8 22 12 ONO 986,5 10 0,0
11.12.2017 02:00:00 -0,5 -2,2 13 7 18 10 O 986,9 10 0,0
11.12.2017 01:00:00 -0,1 -2,2 13 7 22 12 O 987,0 10 0,0
11.12.2017 00:00:00 0,1 -2,4 13 7 22 12 OZO 987,3 10 0,0
10.12.2017 23:00:00 0,9 -1,8 11 6 25 14 OZO 987,5 10 0,0
10.12.2017 22:00:00 0,6 0,2 9 5 36 19 ZZO 988,0 10 0,2
10.12.2017 21:00:00 0,8 0,2 11 6 22 12 ZO 988,5 10 0,0
10.12.2017 20:00:00 -0,3 -0,6 15 8 36 19 Z 988,9 2,0 0,4
10.12.2017 19:00:00 1,3 -2,1 18 10 29 16 Z 989,0 10 0,0
10.12.2017 18:00:00 1,2 -0,5 9 5 25 14 ZZW 989,5 10 0,0
10.12.2017 17:00:00 1,3 -0,5 11 6 25 14 Z 989,6 10 0,0
10.12.2017 16:00:00 1,2 0,3 9 5 22 12 ZZW 990,1 10 0,3
10.12.2017 15:00:00 0,5 0,1 8 4 32 18 ZW 990,3 1,5 0,7
10.12.2017 14:00:00 0,9 0,3 18 10 32 18 ZZW 990,7 1,5 0,1
10.12.2017 13:00:00 1,7 0,1 15 8 29 16 ZZW 991,2 10 0,0
10.12.2017 12:00:00 0,9 -0,4 4 2 7 4 - 991,6 10 0,0
10.12.2017 11:00:00 0,9 -0,3 5 3 14 8 WZW 992,6 10 0,0
10.12.2017 10:00:00 -0,4 -1,5 0 0 7 4 N 993,2 10 0,0
10.12.2017 09:00:00 -0,2 -1,9 4 2 7 4 - 993,6 10 0,0
10.12.2017 08:00:00 -0,9 -2,0 4 2 7 4 - 993,8 10 0,0
10.12.2017 07:00:00 -0,5 -1,6 5 3 7 4 ZW 994,2 10 0,0
10.12.2017 06:00:00 0,1 -1,3 8 4 18 10 WZW 994,3 10 0,0
10.12.2017 05:00:00 0,6 -1,3 8 4 18 10 ZW 994,7 10 0,0
10.12.2017 04:00:00 1,0 -1,1 15 8 25 14 WZW 994,9 10 0,0
10.12.2017 03:00:00 1,0 -1,0 9 5 - - ZW - 10 -
10.12.2017 02:00:00 0,5 -1,1 14 8 25 14 WZW 995,6 40 0,0
10.12.2017 01:00:00 1,0 -1,0 11 6 - - ZW - 10 -
10.12.2017 00:00:00 1,2 -0,6 9 5 25 14 WZW 995,9 10 0,0
09.12.2017 23:00:00 1,5 -0,6 11 6 22 12 ZW 996,1 10 0,0
09.12.2017 22:00:00 1,5 -0,7 13 7 25 14 ZW 996,0 10 0,0
09.12.2017 21:00:00 1,8 -0,5 11 6 22 12 ZW 995,9 10 0,0
09.12.2017 20:00:00 1,8 -0,1 11 6 22 12 ZW 995,6 10 0,0
09.12.2017 19:00:00 2,2 0,4 13 7 22 12 WZW 995,2 10 0,0
09.12.2017 18:00:00 2,3 1,1 11 6 22 12 ZW 994,8 10 0,0
09.12.2017 17:00:00 2,6 1,9 8 4 18 10 ZW 994,3 10 0,9
09.12.2017 16:00:00 2,7 1,8 11 6 22 12 ZW 994,3 10 0,2
09.12.2017 15:00:00 3,1 2,1 11 6 22 12 WZW 993,8 10 0,0
09.12.2017 14:00:00 3,1 1,8 16 9 32 18 WZW 993,7 10 0,0
09.12.2017 13:00:00 4,6 2,0 18 10 32 18 ZW 993,2 10 0,0
09.12.2017 12:00:00 4,4 2,3 16 9 32 18 ZW 993,4 10 0,0
09.12.2017 11:00:00 4,0 2,2 21 11 40 21 ZW 993,3 10 0,1
09.12.2017 10:00:00 4,0 1,9 16 9 32 18 ZW 993,6 10 0,0
09.12.2017 09:00:00 3,7 1,9 22 12 43 23 ZW 993,3 10 0,0
09.12.2017 08:00:00 3,4 1,8 22 12 43 23 ZW 992,9 45 0,0
09.12.2017 07:00:00 3,0 1,0 21 11 - - ZW - 10 -
09.12.2017 06:00:00 3,4 0,9 18 10 43 23 ZW 992,9 40 0,0
09.12.2017 05:00:00 3,4 0,7 22 12 40 21 ZW 993,2 30 0,0
09.12.2017 04:00:00 2,9 0,5 22 12 43 23 ZW 993,4 25 0,0
09.12.2017 03:00:00 2,6 0,3 18 10 40 21 ZW 993,7 10 0,0
09.12.2017 02:00:00 2,4 0,3 18 10 36 19 ZW 993,9 35 0,0
09.12.2017 01:00:00 2,5 0,2 21 11 40 21 WZW 993,8 10 0,0
09.12.2017 00:00:00 2,8 0,0 22 12 43 23 WZW 994,1 10 0,0
08.12.2017 23:00:00 2,9 0,5 22 12 32 18 WZW 994,5 30 0,0
08.12.2017 22:00:00 2,9 0,5 16 9 32 18 WZW 994,5 10 0,0
08.12.2017 21:00:00 2,8 0,5 18 10 32 18 ZW 994,3 10 0,0
08.12.2017 20:00:00 3,1 0,8 18 10 36 19 WZW 994,2 10 0,0
08.12.2017 19:00:00 3,3 1,0 18 10 36 19 ZW 993,9 10 0,0
08.12.2017 18:00:00 3,3 1,0 21 11 36 19 WZW 993,6 10 0,0
08.12.2017 17:00:00 3,6 1,0 15 8 36 19 ZW 993,7 10 0,0
08.12.2017 16:00:00 3,8 0,5 16 9 29 16 WZW 993,6 10 0,0
08.12.2017 15:00:00 4,3 1,3 15 8 32 18 ZW 993,5 10 0,0
08.12.2017 14:00:00 4,8 1,5 18 10 32 18 WZW 993,5 10 0,0
08.12.2017 13:00:00 4,8 1,6 18 10 36 19 WZW 993,5 10 0,0
08.12.2017 12:00:00 4,6 1,4 24 13 40 21 WZW 993,3 10 0,0
08.12.2017 11:00:00 4,9 2,3 22 12 40 21 WZW 993,4 10 0,0
08.12.2017 10:00:00 4,5 2,2 18 10 32 18 WZW 993,1 10 0,0
08.12.2017 09:00:00 4,5 2,0 18 10 32 18 ZW 993,1 10 0,0
08.12.2017 08:00:00 4,7 2,6 15 8 25 14 ZW 992,8 10 0,0
08.12.2017 07:00:00 4,9 2,9 16 9 29 16 WZW 992,9 10 0,0
08.12.2017 06:00:00 5,3 3,8 16 9 25 14 ZW 992,7 10 0,0
08.12.2017 05:00:00 5,3 4,1 13 7 22 12 ZW 992,7 10 0,0
08.12.2017 04:00:00 5,0 4,3 11 6 25 14 WZW 992,8 10 0,0
08.12.2017 03:00:00 5,4 4,7 15 8 29 16 ZW 993,1 10 0,0
08.12.2017 02:00:00 5,5 4,9 15 8 29 16 ZW 993,3 10 0,0
08.12.2017 01:00:00 5,4 4,8 15 8 29 16 ZW 993,5 10 0,2
08.12.2017 00:00:00 5,2 4,6 16 9 36 19 ZW 993,9 10 0,9
07.12.2017 23:00:00 5,3 4,7 18 10 50 27 ZW 994,5 10 1,0
07.12.2017 22:00:00 5,4 4,8 21 11 50 27 ZW 995,5 10 0,2
07.12.2017 21:00:00 5,2 4,8 22 12 43 23 ZW 996,3 3,5 0,0
07.12.2017 20:00:00 5,1 4,7 22 12 43 23 ZW 997,3 10 0,0
07.12.2017 19:00:00 5,0 4,6 21 11 47 25 ZW 998,3 3,0 0,2
07.12.2017 18:00:00 5,5 4,0 26 14 47 25 ZW 999,3 10 0,0
07.12.2017 17:00:00 5,4 3,7 18 10 43 23 ZW 1000,4 10 0,0
07.12.2017 16:00:00 5,6 3,9 22 12 40 21 ZW 1001,3 10 0,0
07.12.2017 15:00:00 5,3 4,3 21 11 40 21 ZW 1002,4 10 0,0
07.12.2017 14:00:00 5,7 3,9 21 11 40 21 ZW 1003,2 10 0,0
07.12.2017 13:00:00 6,1 4,1 21 11 40 21 ZW 1004,2 10 0,0
07.12.2017 12:00:00 6,3 4,6 21 11 40 21 ZW 1004,9 10 0,0
07.12.2017 11:00:00 6,3 5,4 16 9 36 19 ZW 1005,8 10 0,0
07.12.2017 10:00:00 6,7 5,6 18 10 32 18 ZW 1006,3 7 0,0
07.12.2017 09:00:00 6,9 5,8 15 8 32 18 ZW 1006,7 8 0,0
07.12.2017 08:00:00 7,3 5,4 18 10 32 18 WZW 1007,1 10 0,0
07.12.2017 07:00:00 7,5 5,1 15 8 29 16 ZW 1007,2 10 0,0
07.12.2017 06:00:00 7,6 5,7 18 10 32 18 WZW 1007,4 40 0,0
07.12.2017 05:00:00 8,0 6,0 21 11 36 19 WZW 1007,6 10 0,0
07.12.2017 04:00:00 8,0 6,0 22 12 40 21 WZW 1008,2 10 0,0
07.12.2017 03:00:00 8,1 6,1 18 10 32 18 W 1008,7 10 0,0
07.12.2017 02:00:00 8,3 6,3 18 10 36 19 W 1009,1 10 0,0
07.12.2017 01:00:00 8,3 6,8 21 11 36 19 W 1009,4 10 0,0
07.12.2017 00:00:00 8,3 6,9 21 11 40 21 W 1009,9 10 0,0
06.12.2017 23:00:00 8,6 7,2 18 10 32 18 W 1010,3 10 0,0
06.12.2017 22:00:00 8,4 7,6 18 10 36 19 W 1010,6 10 0,0
06.12.2017 21:00:00 8,3 7,9 15 8 32 18 WZW 1010,5 5 0,0
06.12.2017 20:00:00 8,8 8,0 13 7 25 14 W 1010,5 10 0,0
06.12.2017 19:00:00 8,7 7,9 13 7 22 12 W 1010,4 10 0,0
06.12.2017 18:00:00 8,5 7,9 11 6 25 14 W 1010,1 10 0,0
06.12.2017 17:00:00 8,2 7,8 15 8 25 14 W 1010,0 10 0,0
06.12.2017 16:00:00 7,8 7,5 13 7 18 10 WZW 1010,0 3,0 0,0
06.12.2017 15:00:00 7,9 7,5 11 6 18 10 WZW 1010,0 6 0,0
06.12.2017 14:00:00 7,4 7,0 11 6 22 12 WZW 1010,3 4,0 0,0
06.12.2017 13:00:00 7,7 6,6 13 7 25 14 W 1010,5 10 0,0
06.12.2017 12:00:00 7,6 6,4 15 8 25 14 W 1010,8 10 0,0
06.12.2017 11:00:00 7,2 6,1 16 9 29 16 W 1011,2 10 0,0
06.12.2017 10:00:00 7,3 6,2 15 8 32 18 W 1011,3 10 0,0
06.12.2017 09:00:00 7,4 6,3 18 10 32 18 W 1011,2 10 0,0
06.12.2017 08:00:00 7,4 6,5 18 10 32 18 W 1011,2 10 0,2
06.12.2017 07:00:00 7,5 6,9 16 9 32 18 W 1010,9 10 0,3
06.12.2017 06:00:00 7,7 7,1 16 9 32 18 W 1010,9 10 0,2
06.12.2017 05:00:00 7,6 7,2 15 8 29 16 W 1011,1 10 0,0
06.12.2017 04:00:00 7,5 7,2 15 8 25 14 W 1011,4 10 0,0
06.12.2017 03:00:00 7,4 7,1 11 6 22 12 W 1011,9 10 0,0
06.12.2017 02:00:00 7,2 7,1 11 6 22 12 W 1012,1 10 0,0
06.12.2017 01:00:00 7,1 7,0 11 6 22 12 W 1012,2 4,0 0,0
06.12.2017 00:00:00 7,1 7,0 11 6 18 10 W 1012,4 4,6 0,0
05.12.2017 23:00:00 7,1 6,8 9 5 18 10 WZW 1012,2 6 0,0
05.12.2017 22:00:00 7,3 6,9 13 7 25 14 W 1012,0 8 0,0
05.12.2017 21:00:00 7,5 6,9 15 8 25 14 W 1011,7 10 0,0
05.12.2017 20:00:00 7,5 6,8 16 9 29 16 WNW 1011,5 10 0,0
05.12.2017 19:00:00 7,2 6,6 13 7 29 16 W 1011,2 10 0,0
05.12.2017 18:00:00 7,4 6,2 18 10 32 18 W 1011,3 10 0,0
05.12.2017 17:00:00 7,3 6,2 16 9 36 19 W 1011,3 10 0,0
05.12.2017 16:00:00 7,3 6,2 21 11 32 18 W 1011,6 10 0,0
05.12.2017 15:00:00 6,7 6,1 16 9 25 14 W 1012,0 10 0,0
05.12.2017 14:00:00 6,2 5,8 13 7 22 12 W 1012,7 6 0,0
05.12.2017 13:00:00 6,0 5,6 13 7 22 12 W 1013,4 10 0,0
05.12.2017 12:00:00 5,5 5,2 13 7 22 12 W 1013,9 10 0,0
05.12.2017 11:00:00 3,8 3,7 9 5 14 8 W 1014,5 10 0,0
05.12.2017 10:00:00 2,4 2,3 9 5 22 12 W 1015,0 2,5 0,0
05.12.2017 09:00:00 2,3 2,2 8 4 22 12 WZW 1015,5 1,2 0,0
05.12.2017 08:00:00 0,3 0,2 4 2 11 6 ZZW 1016,3 1,5 0,0
05.12.2017 07:00:00 -0,1 -0,5 4 2 7 4 WZW 1016,7 10 0,0
05.12.2017 06:00:00 -1,7 -2,1 5 3 7 4 WZW 1017,6 10 0,0
05.12.2017 05:00:00 -1,9 -2,3 0 0 11 6 N 1018,1 10 0,0
05.12.2017 04:00:00 -2,5 -2,6 8 4 11 6 WNW 1018,7 10 0,0
05.12.2017 03:00:00 -4,1 -4,5 4 2 7 4 WZW 1018,8 10 0,0

tt = temperatuur
td = dauwpunt
ff = windsnelheid
fx = windstoten
dd = windrichting
ppp = luchtdruk
vv = zicht
rr = neerslag

Weerstations in de omgeving